• In Belarus
  • List of Countries
  • For 7 days
  • Water Temperature
  • Weather Map
  • Weather Widgets
  • user-avatar
    Login

    Hourly Weather San Miguel de Tucumán

    Today, 28 February, Friday

    Time Temperature Precipitation Wind Pressure Humidity
    00:00 +23°C° 0 mm 1 mps 720 mmHg 68%
    01:00 +23°C° 0 mm 1 mps 720 mmHg 69%
    02:00 +22°C° 0 mm 1 mps 720 mmHg 67%
    03:00 +22°C° 0 mm 1 mps 720 mmHg 68%
    04:00 +21°C° 0 mm 1 mps 720 mmHg 68%
    05:00 +21°C° 0 mm 1 mps 720 mmHg 69%
    06:00 +22°C° 0 mm 1 mps 721 mmHg 67%
    07:00 +24°C° 0 mm 1 mps 721 mmHg 65%
    08:00 +23°C° 0 mm 0 mps 722 mmHg 63%
    09:00 +27°C° 0 mm 1 mps 722 mmHg 57%
    10:00 +29°C° 0 mm 1 mps 722 mmHg 50%
    11:00 +31°C° 0 mm 1 mps 722 mmHg 44%
    12:00 +32°C° 0.1 mm 2 mps 722 mmHg 43%
    13:00 +34°C° 0.1 mm 2 mps 722 mmHg 42%
    14:00 +35°C° 0.1 mm 2 mps 721 mmHg 40%
    15:00 +34°C° 0.1 mm 2 mps 721 mmHg 42%
    16:00 +34°C° 0.1 mm 2 mps 720 mmHg 43%
    17:00 +34°C° 0.1 mm 2 mps 720 mmHg 44%
    18:00 +30°C° 0 mm 2 mps 720 mmHg 48%
    19:00 +28°C° 0 mm 1 mps 720 mmHg 53%
    20:00 +26°C° 0 mm 1 mps 721 mmHg 58%
    21:00 +26°C° 0.1 mm 1 mps 721 mmHg 59%
    22:00 +26°C° 0.1 mm 1 mps 722 mmHg 60%
    23:00 +25°C° 0.1 mm 1 mps 723 mmHg 61%

    Tomorrow, 29 February, Saturday

    Time Temperature Precipitation Wind Pressure Humidity
    00:00 +25°C° 0.1 mm 1 mps 723 mmHg 63%
    01:00 +24°C° 0.1 mm 1 mps 723 mmHg 65%
    02:00 +24°C° 0.1 mm 1 mps 723 mmHg 66%
    03:00 +23°C° 0 mm 1 mps 723 mmHg 68%
    04:00 +23°C° 0 mm 1 mps 723 mmHg 69%
    05:00 +22°C° 0 mm 1 mps 723 mmHg 71%
    06:00 +24°C° 0 mm 1 mps 724 mmHg 69%
    07:00 +23°C° 0 mm 0 mps 724 mmHg 66%
    08:00 +24°C° 0 mm 0 mps 725 mmHg 64%
    09:00 +29°C° 0 mm 1 mps 725 mmHg 57%
    10:00 +31°C° 0 mm 1 mps 725 mmHg 49%
    11:00 +33°C° 0 mm 1 mps 725 mmHg 42%
    12:00 +34°C° 0.1 mm 1 mps 725 mmHg 39%
    13:00 +35°C° 0.1 mm 2 mps 724 mmHg 37%
    14:00 +36°C° 0.1 mm 2 mps 723 mmHg 35%
    15:00 +35°C° 0.2 mm 2 mps 723 mmHg 36%
    16:00 +35°C° 0.2 mm 2 mps 722 mmHg 38%
    17:00 +34°C° 0.2 mm 2 mps 722 mmHg 40%
    18:00 +31°C° 0 mm 2 mps 722 mmHg 44%
    19:00 +28°C° 0 mm 2 mps 722 mmHg 49%
    20:00 +26°C° 0 mm 2 mps 722 mmHg 54%
    21:00 +26°C° 0 mm 1 mps 723 mmHg 54%
    22:00 +25°C° 0 mm 1 mps 723 mmHg 54%
    23:00 +24°C° 0 mm 1 mps 724 mmHg 54%

    Day after tomorrow, 1 March, Sunday

    Time Temperature Precipitation Wind Pressure Humidity
    00:00 +24°C° 0 mm 1 mps 723 mmHg 54%
    01:00 +24°C° 0 mm 1 mps 723 mmHg 54%
    02:00 +23°C° 0 mm 2 mps 723 mmHg 54%
    03:00 +23°C° 0 mm 2 mps 723 mmHg 56%
    04:00 +22°C° 0 mm 1 mps 723 mmHg 58%
    05:00 +22°C° 0 mm 1 mps 722 mmHg 61%
    06:00 +23°C° 0 mm 1 mps 723 mmHg 58%
    07:00 +25°C° 0 mm 1 mps 723 mmHg 55%
    08:00 +26°C° 0 mm 1 mps 724 mmHg 52%
    09:00 +28°C° 0 mm 2 mps 724 mmHg 46%
    10:00 +30°C° 0 mm 2 mps 724 mmHg 40%
    11:00 +34°C° 0 mm 3 mps 724 mmHg 34%
    12:00 +34°C° 0 mm 3 mps 723 mmHg 33%
    13:00 +35°C° 0 mm 3 mps 723 mmHg 31%
    14:00 +36°C° 0 mm 3 mps 722 mmHg 30%
    15:00 +36°C° 0 mm 3 mps 722 mmHg 32%
    16:00 +35°C° 0 mm 2 mps 721 mmHg 34%
    17:00 +35°C° 0 mm 2 mps 720 mmHg 35%
    18:00 +31°C° 0 mm 2 mps 720 mmHg 41%
    19:00 +29°C° 0 mm 2 mps 721 mmHg 46%
    20:00 +27°C° 0 mm 2 mps 721 mmHg 51%
    21:00 +26°C° 0 mm 2 mps 721 mmHg 52%
    22:00 +26°C° 0 mm 2 mps 722 mmHg 53%
    23:00 +25°C° 0 mm 1 mps 722 mmHg 54%

    2 March, Monday

    Time Temperature Precipitation Wind Pressure Humidity
    00:00 +24°C° 0 mm 1 mps 722 mmHg 54%
    01:00 +24°C° 0 mm 1 mps 721 mmHg 55%
    02:00 +23°C° 0 mm 1 mps 721 mmHg 55%
    03:00 +23°C° 0 mm 1 mps 721 mmHg 56%
    04:00 +23°C° 0 mm 1 mps 721 mmHg 58%
    05:00 +22°C° 0 mm 1 mps 721 mmHg 59%
    06:00 +24°C° 0 mm 1 mps 721 mmHg 57%
    07:00 +25°C° 0 mm 1 mps 722 mmHg 55%
    08:00 +26°C° 0 mm 1 mps 722 mmHg 53%
    09:00 +28°C° 0 mm 1 mps 722 mmHg 47%
    10:00 +31°C° 0 mm 2 mps 722 mmHg 40%
    11:00 +34°C° 0 mm 2 mps 722 mmHg 34%
    12:00 +35°C° 0 mm 2 mps 722 mmHg 32%
    13:00 +36°C° 0 mm 2 mps 721 mmHg 30%
    14:00 +37°C° 0 mm 2 mps 721 mmHg 28%
    15:00 +36°C° 0 mm 2 mps 720 mmHg 30%
    16:00 +36°C° 0 mm 2 mps 720 mmHg 31%
    17:00 +35°C° 0 mm 2 mps 719 mmHg 33%
    18:00 +32°C° 0 mm 2 mps 719 mmHg 38%
    19:00 +29°C° 0 mm 2 mps 719 mmHg 43%
    20:00 +27°C° 0 mm 1 mps 719 mmHg 49%
    21:00 +26°C° 0 mm 1 mps 720 mmHg 50%
    22:00 +26°C° 0 mm 1 mps 720 mmHg 51%
    23:00 +25°C° 0 mm 1 mps 720 mmHg 53%

    3 March, Tuesday

    Time Temperature Precipitation Wind Pressure Humidity
    00:00 +25°C° 0 mm 1 mps 720 mmHg 54%
    01:00 +24°C° 0 mm 1 mps 720 mmHg 55%
    02:00 +24°C° 0 mm 1 mps 720 mmHg 56%
    03:00 +23°C° 0 mm 1 mps 719 mmHg 57%
    04:00 +23°C° 0 mm 1 mps 719 mmHg 58%
    05:00 +23°C° 0 mm 1 mps 719 mmHg 59%
    06:00 +24°C° 0 mm 1 mps 720 mmHg 58%
    07:00 +25°C° 0 mm 1 mps 720 mmHg 56%
    08:00 +25°C° 0 mm 0 mps 721 mmHg 54%
    09:00 +29°C° 0 mm 1 mps 721 mmHg 47%
    10:00 +32°C° 0 mm 1 mps 721 mmHg 41%
    11:00 +34°C° 0 mm 1 mps 721 mmHg 34%
    12:00 +35°C° 0 mm 1 mps 720 mmHg 32%
    13:00 +37°C° 0 mm 2 mps 720 mmHg 30%
    14:00 +38°C° 0 mm 2 mps 720 mmHg 28%
    15:00 +38°C° 0 mm 2 mps 719 mmHg 30%
    16:00 +37°C° 0 mm 2 mps 718 mmHg 31%
    17:00 +37°C° 0 mm 2 mps 718 mmHg 32%
    18:00 +34°C° 0 mm 2 mps 718 mmHg 38%
    19:00 +31°C° 0 mm 2 mps 718 mmHg 43%
    20:00 +28°C° 0 mm 2 mps 718 mmHg 49%
    21:00 +27°C° 0 mm 2 mps 719 mmHg 50%
    22:00 +27°C° 0 mm 2 mps 719 mmHg 52%
    23:00 +26°C° 0 mm 2 mps 720 mmHg 53%

    4 March, Wednesday

    Time Temperature Precipitation Wind Pressure Humidity
    00:00 +26°C° 0 mm 2 mps 720 mmHg 54%
    01:00 +26°C° 0 mm 2 mps 720 mmHg 55%
    02:00 +25°C° 0 mm 1 mps 720 mmHg 55%
    03:00 +25°C° 0 mm 1 mps 720 mmHg 56%
    04:00 +24°C° 0 mm 1 mps 720 mmHg 57%
    05:00 +24°C° 0 mm 1 mps 720 mmHg 58%
    06:00 +25°C° 0 mm 1 mps 721 mmHg 57%
    07:00 +26°C° 0 mm 1 mps 721 mmHg 55%
    08:00 +26°C° 0 mm 0 mps 722 mmHg 54%
    09:00 +30°C° 0 mm 1 mps 722 mmHg 47%
    10:00 +33°C° 0 mm 1 mps 722 mmHg 41%
    11:00 +35°C° 0 mm 1 mps 722 mmHg 34%
    12:00 +36°C° 0 mm 1 mps 722 mmHg 32%
    13:00 +38°C° 0 mm 2 mps 722 mmHg 30%
    14:00 +39°C° 0 mm 2 mps 721 mmHg 27%
    15:00 +39°C° 0 mm 2 mps 721 mmHg 28%
    16:00 +38°C° 0 mm 2 mps 720 mmHg 29%
    17:00 +38°C° 0 mm 2 mps 720 mmHg 30%
    18:00 +35°C° 0 mm 2 mps 720 mmHg 35%
    19:00 +32°C° 0 mm 2 mps 720 mmHg 39%
    20:00 +29°C° 0 mm 2 mps 720 mmHg 44%
    21:00 +28°C° 0 mm 1 mps 720 mmHg 45%
    22:00 +28°C° 0 mm 1 mps 721 mmHg 46%
    23:00 +27°C° 0 mm 1 mps 722 mmHg 47%
    Show more